Back to catalog

NOAA 17 DEB

AlivePO
NORAD 48167·DEBRIS·🇺🇸 United States

Launched Jun 24, 2002 from Vandenberg Space Force Base

Loading…

Next Passes (next 24 hours)

TLE

FreshSource: Space-Track

Epoch: Sep 14, 2026, 12:22 UTC

1 48167U 02032H   26257.51566638  .00008291  00000-0  13285-2 0  9996
2 48167  98.7248 272.1512 0022546 167.7049 192.4711 14.71838979289729

Track NOAA 17 DEB in real time with AllMySat

Download on the App Store